User: anonymous   Login
Location: Wawayanda State Park
(41.1833°N, 74.4333°W)
Time: 17:30:17
(UTC-04:00)
Language:

RESURS DK-1 - Orbit

View from above orbital plane
View from above orbital plane
View from above satellite
View from above satellite

Ground track
Ground track

The orbit data is extracted from the following two-line orbital elements,

1 29228U 06021A   16237.50057173  .00000177  00000-0  20888-4 0  9994
2 29228  69.9360 132.8116 0001840  51.9072 308.2254 15.01964586563550
Epoch (UTC): 24 August 2016 12:00:49
Eccentricity: 0.0001840
inclination: 69.9360°
perigee height: 559 km
apogee height: 562 km
right ascension of ascending node: 132.8116°
argument of perigee: 51.9072°
revolutions per day: 15.01964586
mean anomaly at epoch: 308.2254°
orbit number at epoch: 56355

The dashed part of the orbit path shows where the satellite is in the earth's shadow,  

DLR